Year,Month,Day,Hour,Minute,Value (Times are PST for temperature in C)
2012,06,04,00,00,7.10
2012,06,04,00,01,7.00
2012,06,04,00,02,7.00
2012,06,04,00,03,7.00
2012,06,04,00,04,7.00
2012,06,04,00,05,7.00
2012,06,04,00,06,7.00
2012,06,04,00,07,7.00
2012,06,04,00,08,7.00
2012,06,04,00,09,7.00
2012,06,04,00,10,7.00
2012,06,04,00,11,6.90
2012,06,04,00,12,6.90
2012,06,04,00,13,6.80
2012,06,04,00,14,6.80
2012,06,04,00,15,6.80
2012,06,04,00,16,6.80
2012,06,04,00,17,6.80
2012,06,04,00,18,6.90
2012,06,04,00,19,6.90
2012,06,04,00,20,6.90
2012,06,04,00,21,6.90
2012,06,04,00,22,6.90
2012,06,04,00,23,6.90
2012,06,04,00,24,6.90
2012,06,04,00,25,6.90
2012,06,04,00,26,6.90
2012,06,04,00,27,6.90
2012,06,04,00,28,6.90
2012,06,04,00,29,6.80
2012,06,04,00,30,6.80
2012,06,04,00,31,6.80
2012,06,04,00,32,6.80
2012,06,04,00,33,6.80
2012,06,04,00,34,6.80
2012,06,04,00,35,6.80
2012,06,04,00,36,6.70
2012,06,04,00,37,6.70
2012,06,04,00,38,6.70
2012,06,04,00,39,6.70
2012,06,04,00,40,6.70
2012,06,04,00,41,6.70
2012,06,04,00,42,6.60
2012,06,04,00,43,6.60
2012,06,04,00,44,6.70
2012,06,04,00,45,6.70
2012,06,04,00,46,6.70
2012,06,04,00,47,6.80
2012,06,04,00,48,6.80
2012,06,04,00,49,6.80
2012,06,04,00,50,6.80
2012,06,04,00,51,6.80
2012,06,04,00,52,6.90
2012,06,04,00,53,6.90
2012,06,04,00,54,6.90
2012,06,04,00,55,6.90
2012,06,04,00,56,6.80
2012,06,04,00,57,6.80
2012,06,04,00,58,6.80
2012,06,04,00,59,6.80
2012,06,04,01,00,6.80
2012,06,04,01,01,6.70
2012,06,04,01,02,6.70
2012,06,04,01,03,6.60
2012,06,04,01,04,6.60
2012,06,04,01,05,6.60
2012,06,04,01,06,6.60
2012,06,04,01,07,6.70
2012,06,04,01,08,6.70
2012,06,04,01,09,6.80
2012,06,04,01,10,6.80
2012,06,04,01,11,6.80
2012,06,04,01,12,6.80
2012,06,04,01,13,6.90
2012,06,04,01,14,6.90
2012,06,04,01,15,6.80
2012,06,04,01,16,6.80
2012,06,04,01,17,6.70
2012,06,04,01,18,6.70
2012,06,04,01,19,6.70
2012,06,04,01,20,6.70
2012,06,04,01,21,6.70
2012,06,04,01,22,6.70
2012,06,04,01,23,6.70
2012,06,04,01,24,6.80
2012,06,04,01,25,6.80
2012,06,04,01,26,6.80
2012,06,04,01,27,6.80
2012,06,04,01,28,6.70
2012,06,04,01,29,6.70
2012,06,04,01,30,6.70
2012,06,04,01,31,6.70
2012,06,04,01,32,6.70
2012,06,04,01,33,6.70
2012,06,04,01,34,6.80
2012,06,04,01,35,6.80
2012,06,04,01,36,6.90
2012,06,04,01,37,7.00
2012,06,04,01,38,7.10
2012,06,04,01,39,7.30
2012,06,04,01,40,7.40
2012,06,04,01,41,7.50
2012,06,04,01,42,7.60
2012,06,04,01,43,7.70
2012,06,04,01,44,7.80
2012,06,04,01,45,7.80
2012,06,04,01,46,7.80
2012,06,04,01,47,7.90
2012,06,04,01,48,7.90
2012,06,04,01,49,7.90
2012,06,04,01,50,7.90
2012,06,04,01,51,7.90
2012,06,04,01,52,7.90
2012,06,04,01,53,7.90
2012,06,04,01,54,7.90
2012,06,04,01,55,7.90
2012,06,04,01,56,7.80
2012,06,04,01,57,7.80
2012,06,04,01,58,7.80
2012,06,04,01,59,7.70
2012,06,04,02,00,7.70
2012,06,04,02,01,7.70
2012,06,04,02,02,7.60
2012,06,04,02,03,7.60
2012,06,04,02,04,7.60
2012,06,04,02,05,7.50
2012,06,04,02,06,7.50
2012,06,04,02,07,7.50
2012,06,04,02,08,7.50
2012,06,04,02,09,7.50
2012,06,04,02,10,7.50
2012,06,04,02,11,7.60
2012,06,04,02,12,7.60
2012,06,04,02,13,7.60
2012,06,04,02,14,7.60
2012,06,04,02,15,7.60
2012,06,04,02,16,7.70
2012,06,04,02,17,7.70
2012,06,04,02,18,7.70
2012,06,04,02,19,7.70
2012,06,04,02,20,7.80
2012,06,04,02,21,7.80
2012,06,04,02,22,7.80
2012,06,04,02,23,7.80
2012,06,04,02,24,7.80
2012,06,04,02,25,7.80
2012,06,04,02,26,7.80
2012,06,04,02,27,7.70
2012,06,04,02,28,7.70
2012,06,04,02,29,7.70
2012,06,04,02,30,7.70
2012,06,04,02,31,7.80
2012,06,04,02,32,7.80
2012,06,04,02,33,7.80
2012,06,04,02,34,7.80
2012,06,04,02,35,7.80
2012,06,04,02,36,7.80
2012,06,04,02,37,7.80
2012,06,04,02,38,7.80
2012,06,04,02,39,7.80
2012,06,04,02,40,7.90
2012,06,04,02,41,7.90
2012,06,04,02,42,7.90
2012,06,04,02,43,7.90
2012,06,04,02,44,8.00
2012,06,04,02,45,8.00
2012,06,04,02,46,8.00
2012,06,04,02,47,8.00
2012,06,04,02,48,8.00
2012,06,04,02,49,8.10
2012,06,04,02,50,8.10
2012,06,04,02,51,8.10
2012,06,04,02,52,8.10
2012,06,04,02,53,8.10
2012,06,04,02,54,8.20
2012,06,04,02,55,8.20
2012,06,04,02,56,8.20
2012,06,04,02,57,8.20
2012,06,04,02,58,8.20
2012,06,04,02,59,8.20
2012,06,04,03,00,8.20
2012,06,04,03,01,8.20
2012,06,04,03,02,8.20
2012,06,04,03,03,8.20
2012,06,04,03,04,8.20
2012,06,04,03,05,8.20
2012,06,04,03,06,8.20
2012,06,04,03,07,8.20
2012,06,04,03,08,8.20
2012,06,04,03,09,8.20
2012,06,04,03,10,8.20
2012,06,04,03,11,8.20
2012,06,04,03,12,8.20
2012,06,04,03,13,8.20
2012,06,04,03,14,8.20
2012,06,04,03,15,8.20
2012,06,04,03,16,8.20
2012,06,04,03,17,8.20
2012,06,04,03,18,8.20
2012,06,04,03,19,8.20
2012,06,04,03,20,8.20
2012,06,04,03,21,8.20
2012,06,04,03,22,8.20
2012,06,04,03,23,8.20
2012,06,04,03,24,8.20
2012,06,04,03,25,8.20
2012,06,04,03,26,8.20
2012,06,04,03,27,8.10
2012,06,04,03,28,8.10
2012,06,04,03,29,8.10
2012,06,04,03,30,8.10
2012,06,04,03,31,8.00
2012,06,04,03,32,8.00
2012,06,04,03,33,8.00
2012,06,04,03,34,8.00
2012,06,04,03,35,7.90
2012,06,04,03,36,7.90
2012,06,04,03,37,7.90
2012,06,04,03,38,7.90
2012,06,04,03,39,7.90
2012,06,04,03,40,7.90
2012,06,04,03,41,7.80
2012,06,04,03,42,7.80
2012,06,04,03,43,7.80
2012,06,04,03,44,7.80
2012,06,04,03,45,7.90
2012,06,04,03,46,7.90
2012,06,04,03,47,7.90
2012,06,04,03,48,7.90
2012,06,04,03,49,7.90
2012,06,04,03,50,7.90
2012,06,04,03,51,7.90
2012,06,04,03,52,7.90
2012,06,04,03,53,8.00
2012,06,04,03,54,8.00
2012,06,04,03,55,8.00
2012,06,04,03,56,8.00
2012,06,04,03,57,8.00
2012,06,04,03,58,8.00
2012,06,04,03,59,8.00
2012,06,04,04,00,8.10
2012,06,04,04,01,8.10
2012,06,04,04,02,8.10
2012,06,04,04,03,8.10
2012,06,04,04,04,8.10
2012,06,04,04,05,8.10
2012,06,04,04,06,8.10
2012,06,04,04,07,8.10
2012,06,04,04,08,8.10
2012,06,04,04,09,8.10
2012,06,04,04,10,8.20
2012,06,04,04,11,8.20
2012,06,04,04,12,8.20
2012,06,04,04,13,8.20
2012,06,04,04,14,8.20
2012,06,04,04,15,8.20
2012,06,04,04,16,8.20
2012,06,04,04,17,8.20
2012,06,04,04,18,8.20
2012,06,04,04,19,8.20
2012,06,04,04,20,8.20
2012,06,04,04,21,8.20
2012,06,04,04,22,8.20
2012,06,04,04,23,8.20
2012,06,04,04,24,8.20
2012,06,04,04,25,8.20
2012,06,04,04,26,8.20
2012,06,04,04,27,8.20
2012,06,04,04,28,8.20
2012,06,04,04,29,8.20
2012,06,04,04,30,8.20
2012,06,04,04,31,8.20
2012,06,04,04,32,8.20
2012,06,04,04,33,8.20
2012,06,04,04,34,8.20
2012,06,04,04,35,8.20
2012,06,04,04,36,8.20
2012,06,04,04,37,8.20
2012,06,04,04,38,8.20
2012,06,04,04,39,8.20
2012,06,04,04,40,8.20
2012,06,04,04,41,8.20
2012,06,04,04,42,8.20
2012,06,04,04,43,8.20
2012,06,04,04,44,8.20
2012,06,04,04,45,8.20
2012,06,04,04,46,8.20
2012,06,04,04,47,8.20
2012,06,04,04,48,8.20
2012,06,04,04,49,8.20
2012,06,04,04,50,8.20
2012,06,04,04,51,8.20
2012,06,04,04,52,8.30
2012,06,04,04,53,8.30
2012,06,04,04,54,8.30
2012,06,04,04,55,8.30
2012,06,04,04,56,8.30
2012,06,04,04,57,8.30
2012,06,04,04,58,8.30
2012,06,04,04,59,8.30
2012,06,04,05,00,8.30
2012,06,04,05,01,8.30
2012,06,04,05,02,8.30
2012,06,04,05,03,8.30
2012,06,04,05,04,8.30
2012,06,04,05,05,8.30
2012,06,04,05,06,8.30
2012,06,04,05,07,8.30
2012,06,04,05,08,8.30
2012,06,04,05,09,8.30
2012,06,04,05,10,8.30
2012,06,04,05,11,8.30
2012,06,04,05,12,8.30
2012,06,04,05,13,8.30
2012,06,04,05,14,8.30
2012,06,04,05,15,8.30
2012,06,04,05,16,8.20
2012,06,04,05,17,8.20
2012,06,04,05,18,8.20
2012,06,04,05,19,8.20
2012,06,04,05,20,8.20
2012,06,04,05,21,8.20
2012,06,04,05,22,8.20
2012,06,04,05,23,8.20
2012,06,04,05,24,8.20
2012,06,04,05,25,8.20
2012,06,04,05,26,8.20
2012,06,04,05,27,8.20
2012,06,04,05,28,8.20
2012,06,04,05,29,8.20
2012,06,04,05,30,8.20
2012,06,04,05,31,8.20
2012,06,04,05,32,8.20
2012,06,04,05,33,8.20
2012,06,04,05,34,8.20
2012,06,04,05,35,8.20
2012,06,04,05,36,8.20
2012,06,04,05,37,8.20
2012,06,04,05,38,8.20
2012,06,04,05,39,8.20
2012,06,04,05,40,8.20
2012,06,04,05,41,8.20
2012,06,04,05,42,8.20
2012,06,04,05,43,8.20
2012,06,04,05,44,8.30
2012,06,04,05,45,8.30
2012,06,04,05,46,8.30
2012,06,04,05,47,8.30
2012,06,04,05,48,8.30
2012,06,04,05,49,8.30
2012,06,04,05,50,8.30
2012,06,04,05,51,8.30
2012,06,04,05,52,8.30
2012,06,04,05,53,8.30
2012,06,04,05,54,8.30
2012,06,04,05,55,8.30
2012,06,04,05,56,8.30
2012,06,04,05,57,8.30
2012,06,04,05,58,8.30
2012,06,04,05,59,8.30
2012,06,04,06,00,8.40
2012,06,04,06,01,8.40
2012,06,04,06,02,8.40
2012,06,04,06,03,8.40
2012,06,04,06,04,8.40
2012,06,04,06,05,8.40
2012,06,04,06,06,8.40
2012,06,04,06,07,8.40
2012,06,04,06,08,8.40
2012,06,04,06,09,8.40
2012,06,04,06,10,8.40
2012,06,04,06,11,8.50
2012,06,04,06,12,8.50
2012,06,04,06,13,8.50
2012,06,04,06,14,8.50
2012,06,04,06,15,8.50
2012,06,04,06,16,8.50
2012,06,04,06,17,8.50
2012,06,04,06,18,8.50
2012,06,04,06,19,8.50
2012,06,04,06,20,8.50
2012,06,04,06,21,8.50
2012,06,04,06,22,8.50
2012,06,04,06,23,8.50
2012,06,04,06,24,8.50
2012,06,04,06,25,8.50
2012,06,04,06,26,8.50
2012,06,04,06,27,8.60
2012,06,04,06,28,8.60
2012,06,04,06,29,8.60
2012,06,04,06,30,8.60
2012,06,04,06,31,8.60
2012,06,04,06,32,8.60
2012,06,04,06,33,8.60
2012,06,04,06,34,8.70
2012,06,04,06,35,8.70
2012,06,04,06,36,8.70
2012,06,04,06,37,8.70
2012,06,04,06,38,8.70
2012,06,04,06,39,8.70
2012,06,04,06,40,8.70
2012,06,04,06,41,8.70
2012,06,04,06,42,8.70
2012,06,04,06,43,8.70
2012,06,04,06,44,8.70
2012,06,04,06,45,8.70
2012,06,04,06,46,8.70
2012,06,04,06,47,8.70
2012,06,04,06,48,8.70
2012,06,04,06,49,8.70
2012,06,04,06,50,8.70
2012,06,04,06,51,8.70
2012,06,04,06,52,8.80
2012,06,04,06,53,8.80
2012,06,04,06,54,8.80
2012,06,04,06,55,8.80
2012,06,04,06,56,8.80
2012,06,04,06,57,8.90
2012,06,04,06,58,8.90
2012,06,04,06,59,8.90
2012,06,04,07,00,8.90
2012,06,04,07,01,8.90
2012,06,04,07,02,8.90
2012,06,04,07,03,8.90
2012,06,04,07,04,8.90
2012,06,04,07,05,8.90
2012,06,04,07,06,8.90
2012,06,04,07,07,9.00
2012,06,04,07,08,9.00
2012,06,04,07,09,9.00
2012,06,04,07,10,9.00
2012,06,04,07,11,9.00
2012,06,04,07,12,9.00
2012,06,04,07,13,9.00
2012,06,04,07,14,9.00
2012,06,04,07,15,9.10
2012,06,04,07,16,9.10
2012,06,04,07,17,9.10
2012,06,04,07,18,9.10
2012,06,04,07,19,9.20
2012,06,04,07,20,9.20
2012,06,04,07,21,9.20
2012,06,04,07,22,9.20
2012,06,04,07,23,9.20
2012,06,04,07,24,9.20
2012,06,04,07,25,9.20
2012,06,04,07,26,9.20
2012,06,04,07,27,9.20
2012,06,04,07,28,9.20
2012,06,04,07,29,9.30
2012,06,04,07,30,9.30
2012,06,04,07,31,9.30
2012,06,04,07,32,9.30
2012,06,04,07,33,9.30
2012,06,04,07,34,9.30
2012,06,04,07,35,9.30
2012,06,04,07,36,9.30
2012,06,04,07,37,9.30
2012,06,04,07,38,9.30
2012,06,04,07,39,9.40
2012,06,04,07,40,9.40
2012,06,04,07,41,9.40
2012,06,04,07,42,9.40
2012,06,04,07,43,9.40
2012,06,04,07,44,9.40
2012,06,04,07,45,9.50
2012,06,04,07,46,9.50
2012,06,04,07,47,9.50
2012,06,04,07,48,9.50
2012,06,04,07,49,9.50
2012,06,04,07,50,9.50
2012,06,04,07,51,9.50
2012,06,04,07,52,9.50
2012,06,04,07,53,9.50
2012,06,04,07,54,9.50
2012,06,04,07,55,9.60
2012,06,04,07,56,9.60
2012,06,04,07,57,9.60
2012,06,04,07,58,9.60
2012,06,04,07,59,9.60
2012,06,04,08,00,9.60
2012,06,04,08,01,9.60
2012,06,04,08,02,9.60
2012,06,04,08,03,9.70
2012,06,04,08,04,9.70
2012,06,04,08,05,9.70
2012,06,04,08,06,9.70
2012,06,04,08,07,9.70
2012,06,04,08,08,9.70
2012,06,04,08,09,9.70
2012,06,04,08,10,9.70
2012,06,04,08,11,9.70
2012,06,04,08,12,9.70
2012,06,04,08,13,9.70
2012,06,04,08,14,9.70
2012,06,04,08,15,9.70
2012,06,04,08,16,9.70
2012,06,04,08,17,9.70
2012,06,04,08,18,9.70
2012,06,04,08,19,9.70
2012,06,04,08,20,9.70
2012,06,04,08,21,9.70
2012,06,04,08,22,9.70
2012,06,04,08,23,9.70
2012,06,04,08,24,9.70
2012,06,04,08,25,9.70
2012,06,04,08,26,9.70
2012,06,04,08,27,9.70
2012,06,04,08,28,9.70
2012,06,04,08,29,9.70
2012,06,04,08,30,9.70
2012,06,04,08,31,9.80
2012,06,04,08,32,9.80
2012,06,04,08,33,9.80
2012,06,04,08,34,9.80
2012,06,04,08,35,9.80
2012,06,04,08,36,9.80
2012,06,04,08,37,9.80
2012,06,04,08,38,9.80
2012,06,04,08,39,9.80
2012,06,04,08,40,9.80
2012,06,04,08,41,9.90
2012,06,04,08,42,9.90
2012,06,04,08,43,9.90
2012,06,04,08,44,9.90
2012,06,04,08,45,9.90
2012,06,04,08,46,9.90
2012,06,04,08,47,9.90
2012,06,04,08,48,10.00
2012,06,04,08,49,10.10
2012,06,04,08,50,10.10
2012,06,04,08,51,10.10
2012,06,04,08,52,10.10
2012,06,04,08,53,10.10
2012,06,04,08,54,10.10
2012,06,04,08,55,10.10
2012,06,04,08,56,10.20
2012,06,04,08,57,10.20
2012,06,04,08,58,10.20
2012,06,04,08,59,10.20
2012,06,04,09,00,10.30
2012,06,04,09,01,10.30
2012,06,04,09,02,10.30
2012,06,04,09,03,10.30
2012,06,04,09,04,10.40
2012,06,04,09,05,10.40
2012,06,04,09,06,10.40
2012,06,04,09,07,10.40
2012,06,04,09,08,10.40
2012,06,04,09,09,10.40
2012,06,04,09,10,10.40
2012,06,04,09,11,10.40
2012,06,04,09,12,10.40
2012,06,04,09,13,10.40
2012,06,04,09,14,10.40
2012,06,04,09,15,10.40
2012,06,04,09,16,10.50
2012,06,04,09,17,10.60
2012,06,04,09,18,10.60
2012,06,04,09,19,10.60
2012,06,04,09,20,10.60
2012,06,04,09,21,10.60
2012,06,04,09,22,10.70
2012,06,04,09,23,10.70
2012,06,04,09,24,10.70
2012,06,04,09,25,10.80
2012,06,04,09,26,10.80
2012,06,04,09,27,10.80
2012,06,04,09,28,10.90
2012,06,04,09,29,10.90
2012,06,04,09,30,10.90
2012,06,04,09,31,10.90
2012,06,04,09,32,10.90
2012,06,04,09,33,10.90
2012,06,04,09,34,10.90
2012,06,04,09,35,10.90
2012,06,04,09,36,10.90
2012,06,04,09,37,10.90
2012,06,04,09,38,10.90
2012,06,04,09,39,11.00
2012,06,04,09,40,11.00
2012,06,04,09,41,10.90
2012,06,04,09,42,10.90
2012,06,04,09,43,11.00
2012,06,04,09,44,11.10
2012,06,04,09,45,11.10
2012,06,04,09,46,11.10
2012,06,04,09,47,11.10
2012,06,04,09,48,11.00
2012,06,04,09,49,11.10
2012,06,04,09,50,11.10
2012,06,04,09,51,11.10
2012,06,04,09,52,11.10
2012,06,04,09,53,11.10
2012,06,04,09,54,11.10
2012,06,04,09,55,11.10
2012,06,04,09,56,11.10
2012,06,04,09,57,11.10
2012,06,04,09,58,11.10
2012,06,04,09,59,11.10
2012,06,04,10,00,11.10
2012,06,04,10,01,11.10
2012,06,04,10,02,11.10
2012,06,04,10,03,11.20
2012,06,04,10,04,11.20
2012,06,04,10,05,11.20
2012,06,04,10,06,11.20
2012,06,04,10,07,11.20
2012,06,04,10,08,11.30
2012,06,04,10,09,11.30
2012,06,04,10,10,11.30
2012,06,04,10,11,11.30
2012,06,04,10,12,11.30
2012,06,04,10,13,11.30
2012,06,04,10,14,11.30
2012,06,04,10,15,11.30
2012,06,04,10,16,11.30
2012,06,04,10,17,11.30
2012,06,04,10,18,11.30
2012,06,04,10,19,11.30
2012,06,04,10,20,11.40
2012,06,04,10,21,11.30
2012,06,04,10,22,11.30
2012,06,04,10,23,11.30
2012,06,04,10,24,11.30
2012,06,04,10,25,11.30
2012,06,04,10,26,11.30
2012,06,04,10,27,11.30
2012,06,04,10,28,11.30
2012,06,04,10,29,11.40
2012,06,04,10,30,11.40
2012,06,04,10,31,11.40
2012,06,04,10,32,11.30
2012,06,04,10,33,11.30
2012,06,04,10,34,11.30
2012,06,04,10,35,11.20
2012,06,04,10,36,11.20
2012,06,04,10,37,11.30
2012,06,04,10,38,11.30
2012,06,04,10,39,11.30
2012,06,04,10,40,11.30
2012,06,04,10,41,11.40
2012,06,04,10,42,11.40
2012,06,04,10,43,11.40
2012,06,04,10,44,11.40
2012,06,04,10,45,11.40
2012,06,04,10,46,11.40
2012,06,04,10,47,11.40
2012,06,04,10,48,11.40
2012,06,04,10,49,11.40
2012,06,04,10,50,11.30
2012,06,04,10,51,11.30
2012,06,04,10,52,11.30
2012,06,04,10,53,11.30
2012,06,04,10,54,11.20
2012,06,04,10,55,11.20
2012,06,04,10,56,11.20
2012,06,04,10,57,11.20
2012,06,04,10,58,11.20
2012,06,04,10,59,11.20
2012,06,04,11,00,11.20
2012,06,04,11,01,11.20
2012,06,04,11,02,11.20
2012,06,04,11,03,11.30
2012,06,04,11,04,11.30
2012,06,04,11,05,11.30
2012,06,04,11,06,11.30
2012,06,04,11,07,11.30
2012,06,04,11,08,11.30
2012,06,04,11,09,11.40
2012,06,04,11,10,11.40
2012,06,04,11,11,11.40
2012,06,04,11,12,11.40
2012,06,04,11,13,11.50
2012,06,04,11,14,11.60
2012,06,04,11,15,11.60
2012,06,04,11,16,11.60
2012,06,04,11,17,11.60
2012,06,04,11,18,11.60
2012,06,04,11,19,11.40
2012,06,04,11,20,11.40
2012,06,04,11,21,11.40
2012,06,04,11,22,11.40
2012,06,04,11,23,11.40
2012,06,04,11,24,11.50
2012,06,04,11,25,11.60
2012,06,04,11,26,11.60
2012,06,04,11,27,11.60
2012,06,04,11,28,11.60
2012,06,04,11,29,11.60
2012,06,04,11,30,11.60
2012,06,04,11,31,11.60
2012,06,04,11,32,11.60
2012,06,04,11,33,11.60
2012,06,04,11,34,11.60
2012,06,04,11,35,11.60
2012,06,04,11,36,11.60
2012,06,04,11,37,11.60
2012,06,04,11,38,11.60
2012,06,04,11,39,11.70
2012,06,04,11,40,11.70
2012,06,04,11,41,11.70
2012,06,04,11,42,11.80
2012,06,04,11,43,11.80
2012,06,04,11,44,11.80
2012,06,04,11,45,11.80
2012,06,04,11,46,11.80
2012,06,04,11,47,11.80
2012,06,04,11,48,11.80
2012,06,04,11,49,11.80
2012,06,04,11,50,11.80
2012,06,04,11,51,11.70
2012,06,04,11,52,11.70
2012,06,04,11,53,11.60
2012,06,04,11,54,11.60
2012,06,04,11,55,11.60
2012,06,04,11,56,11.60
2012,06,04,11,57,11.60
2012,06,04,11,58,11.60
2012,06,04,11,59,11.60
2012,06,04,12,00,11.50
2012,06,04,12,01,11.50
2012,06,04,12,02,11.60
2012,06,04,12,03,11.60
2012,06,04,12,04,11.50
2012,06,04,12,05,11.40
2012,06,04,12,06,11.40
2012,06,04,12,07,11.40
2012,06,04,12,08,11.40
2012,06,04,12,09,11.40
2012,06,04,12,10,11.40
2012,06,04,12,11,11.40
2012,06,04,12,12,11.40
2012,06,04,12,13,11.40
2012,06,04,12,14,11.40
2012,06,04,12,15,11.40
2012,06,04,12,16,11.40
2012,06,04,12,17,11.50
2012,06,04,12,18,11.60
2012,06,04,12,19,11.60
2012,06,04,12,20,11.60
2012,06,04,12,21,11.60
2012,06,04,12,22,11.60
2012,06,04,12,23,11.60
2012,06,04,12,24,11.60
2012,06,04,12,25,11.60
2012,06,04,12,26,11.60
2012,06,04,12,27,11.60
2012,06,04,12,28,11.60
2012,06,04,12,29,11.60
2012,06,04,12,30,11.60
2012,06,04,12,31,11.60
2012,06,04,12,32,11.40
2012,06,04,12,33,11.40
2012,06,04,12,34,11.40
2012,06,04,12,35,11.40
2012,06,04,12,36,11.40
2012,06,04,12,37,11.40
2012,06,04,12,38,11.50
2012,06,04,12,39,11.60
2012,06,04,12,40,11.60
2012,06,04,12,41,11.60
2012,06,04,12,42,11.60
2012,06,04,12,43,11.60
2012,06,04,12,44,11.60
2012,06,04,12,45,11.60
2012,06,04,12,46,11.60
2012,06,04,12,47,11.60
2012,06,04,12,48,11.60
2012,06,04,12,49,11.60
2012,06,04,12,50,11.60
2012,06,04,12,51,11.60
2012,06,04,12,52,11.60
2012,06,04,12,53,11.60
2012,06,04,12,54,11.60
2012,06,04,12,55,11.60
2012,06,04,12,56,11.60
2012,06,04,12,57,11.60
2012,06,04,12,58,11.60
2012,06,04,12,59,11.60
2012,06,04,13,00,11.60
2012,06,04,13,01,11.60
2012,06,04,13,02,11.60
2012,06,04,13,03,11.60
2012,06,04,13,04,11.60
2012,06,04,13,05,11.60
2012,06,04,13,06,11.60
2012,06,04,13,07,11.60
2012,06,04,13,08,11.60
2012,06,04,13,09,11.60
2012,06,04,13,10,11.60
2012,06,04,13,11,11.60
2012,06,04,13,12,11.60
2012,06,04,13,13,11.70
2012,06,04,13,14,11.70
2012,06,04,13,15,11.70
2012,06,04,13,16,11.60
2012,06,04,13,17,11.60
2012,06,04,13,18,11.60
2012,06,04,13,19,11.60
2012,06,04,13,20,11.60
2012,06,04,13,21,11.60
2012,06,04,13,22,11.60
2012,06,04,13,23,11.60
2012,06,04,13,24,11.60
2012,06,04,13,25,11.60
2012,06,04,13,26,11.60
2012,06,04,13,27,11.70
2012,06,04,13,28,11.70
2012,06,04,13,29,11.70
2012,06,04,13,30,11.70
2012,06,04,13,31,11.70
2012,06,04,13,32,11.70
2012,06,04,13,33,11.70
2012,06,04,13,34,11.70
2012,06,04,13,35,11.70
2012,06,04,13,36,11.70
2012,06,04,13,37,11.70
2012,06,04,13,38,11.70
2012,06,04,13,39,11.70
2012,06,04,13,40,11.70
2012,06,04,13,41,11.70
2012,06,04,13,42,11.60
2012,06,04,13,43,11.60
2012,06,04,13,44,11.60
2012,06,04,13,45,11.60
2012,06,04,13,46,11.60
2012,06,04,13,47,11.70
2012,06,04,13,48,11.70
2012,06,04,13,49,11.70
2012,06,04,13,50,11.80
2012,06,04,13,51,11.80
2012,06,04,13,52,11.80
2012,06,04,13,53,11.80
2012,06,04,13,54,11.80
2012,06,04,13,55,11.80
2012,06,04,13,56,11.80
2012,06,04,13,57,11.80
2012,06,04,13,58,11.80
2012,06,04,13,59,11.80
2012,06,04,14,00,11.80
2012,06,04,14,01,11.80
2012,06,04,14,02,11.80
2012,06,04,14,03,11.80
2012,06,04,14,04,11.80
2012,06,04,14,05,11.80
2012,06,04,14,06,11.80
2012,06,04,14,07,11.80
2012,06,04,14,08,11.80
2012,06,04,14,09,11.80
2012,06,04,14,10,11.90
2012,06,04,14,11,11.90
2012,06,04,14,12,11.80
2012,06,04,14,13,11.80
2012,06,04,14,14,11.80
2012,06,04,14,15,11.80
2012,06,04,14,16,11.90
2012,06,04,14,17,11.90
2012,06,04,14,18,11.90
2012,06,04,14,19,11.90
2012,06,04,14,20,11.90
2012,06,04,14,21,11.90
2012,06,04,14,22,11.90
2012,06,04,14,23,12.00
2012,06,04,14,24,12.00
2012,06,04,14,25,11.90
2012,06,04,14,26,11.90
2012,06,04,14,27,11.90
2012,06,04,14,28,11.90
2012,06,04,14,29,11.90
2012,06,04,14,30,11.90
2012,06,04,14,31,11.80
2012,06,04,14,32,11.90
2012,06,04,14,33,11.90
2012,06,04,14,34,11.90
2012,06,04,14,35,12.00
2012,06,04,14,36,12.10
2012,06,04,14,37,12.20
2012,06,04,14,38,12.30
2012,06,04,14,39,12.30
2012,06,04,14,40,12.30
2012,06,04,14,41,12.30
2012,06,04,14,42,12.30
2012,06,04,14,43,12.20
2012,06,04,14,44,12.20
2012,06,04,14,45,12.20
2012,06,04,14,46,12.20
2012,06,04,14,47,12.20
2012,06,04,14,48,12.30
2012,06,04,14,49,12.30
2012,06,04,14,50,12.30
2012,06,04,14,51,12.40
2012,06,04,14,52,12.50
2012,06,04,14,53,12.50
2012,06,04,14,54,12.60
2012,06,04,14,55,12.60
2012,06,04,14,56,12.70
2012,06,04,14,57,12.80
2012,06,04,14,58,12.80
2012,06,04,14,59,12.80
2012,06,04,15,00,12.80
2012,06,04,15,01,12.90
2012,06,04,15,02,12.90
2012,06,04,15,03,12.90
2012,06,04,15,04,12.90
2012,06,04,15,05,12.80
2012,06,04,15,06,12.80
2012,06,04,15,07,12.80
2012,06,04,15,08,12.80
2012,06,04,15,09,12.70
2012,06,04,15,10,12.70
2012,06,04,15,11,12.70
2012,06,04,15,12,12.60
2012,06,04,15,13,12.60
2012,06,04,15,14,12.60
2012,06,04,15,15,12.60
2012,06,04,15,16,12.70
2012,06,04,15,17,12.70
2012,06,04,15,18,12.70
2012,06,04,15,19,12.70
2012,06,04,15,20,12.80
2012,06,04,15,21,12.80
2012,06,04,15,22,12.70
2012,06,04,15,23,12.70
2012,06,04,15,24,12.80
2012,06,04,15,25,12.80
2012,06,04,15,26,12.80
2012,06,04,15,27,12.80
2012,06,04,15,28,12.80
2012,06,04,15,29,12.70
2012,06,04,15,30,12.70
2012,06,04,15,31,12.70
2012,06,04,15,32,12.80
2012,06,04,15,33,12.80
2012,06,04,15,34,12.90
2012,06,04,15,35,12.90
2012,06,04,15,36,12.80
2012,06,04,15,37,12.80
2012,06,04,15,38,12.80
2012,06,04,15,39,12.90
2012,06,04,15,40,12.90
2012,06,04,15,41,12.90
2012,06,04,15,42,12.90
2012,06,04,15,43,12.90
2012,06,04,15,44,12.90
2012,06,04,15,45,12.90
2012,06,04,15,46,12.90
2012,06,04,15,47,12.90
2012,06,04,15,48,12.90
2012,06,04,15,49,13.00
2012,06,04,15,50,13.00
2012,06,04,15,51,13.00
2012,06,04,15,52,13.00
2012,06,04,15,53,13.00
2012,06,04,15,54,13.00
2012,06,04,15,55,13.00
2012,06,04,15,56,13.00
2012,06,04,15,57,12.90
2012,06,04,15,58,12.90
2012,06,04,15,59,12.90
2012,06,04,16,00,12.90
2012,06,04,16,01,12.90
2012,06,04,16,02,12.90
2012,06,04,16,03,12.90
2012,06,04,16,04,12.90
2012,06,04,16,05,12.90
2012,06,04,16,06,12.90
2012,06,04,16,07,12.90
2012,06,04,16,08,12.90
2012,06,04,16,09,12.90
2012,06,04,16,10,12.90
2012,06,04,16,11,12.80
2012,06,04,16,12,12.80
2012,06,04,16,13,12.80
2012,06,04,16,14,12.80
2012,06,04,16,15,12.90
2012,06,04,16,16,12.90
2012,06,04,16,17,12.90
2012,06,04,16,18,12.90
2012,06,04,16,19,12.90
2012,06,04,16,20,12.90
2012,06,04,16,21,13.00
2012,06,04,16,22,13.10
2012,06,04,16,23,13.10
2012,06,04,16,24,13.10
2012,06,04,16,25,13.20
2012,06,04,16,26,13.10
2012,06,04,16,27,13.10
2012,06,04,16,28,13.00
2012,06,04,16,29,12.90
2012,06,04,16,30,12.90
2012,06,04,16,31,12.90
2012,06,04,16,32,12.90
2012,06,04,16,33,12.90
2012,06,04,16,34,12.80
2012,06,04,16,35,12.80
2012,06,04,16,36,12.80
2012,06,04,16,37,12.80
2012,06,04,16,38,12.80
2012,06,04,16,39,12.80
2012,06,04,16,40,12.80
2012,06,04,16,41,12.80
2012,06,04,16,42,12.70
2012,06,04,16,43,12.70
2012,06,04,16,44,12.60
2012,06,04,16,45,12.60
2012,06,04,16,46,12.60
2012,06,04,16,47,12.60
2012,06,04,16,48,12.60
2012,06,04,16,49,12.70
2012,06,04,16,50,12.80
2012,06,04,16,51,12.80
2012,06,04,16,52,12.80
2012,06,04,16,53,12.80
2012,06,04,16,54,12.80
2012,06,04,16,55,12.80
2012,06,04,16,56,12.80
2012,06,04,16,57,12.80
2012,06,04,16,58,12.80
2012,06,04,16,59,12.80
2012,06,04,17,00,12.80
2012,06,04,17,01,12.80
2012,06,04,17,02,12.70
2012,06,04,17,03,12.70
2012,06,04,17,04,12.70
2012,06,04,17,05,12.70
2012,06,04,17,06,12.80
2012,06,04,17,07,12.80
2012,06,04,17,08,12.80
2012,06,04,17,09,12.80
2012,06,04,17,10,12.70
2012,06,04,17,11,12.70
2012,06,04,17,12,12.70
2012,06,04,17,13,12.70
2012,06,04,17,14,12.70
2012,06,04,17,15,12.70
2012,06,04,17,16,12.70
2012,06,04,17,17,12.70
2012,06,04,17,18,12.70
2012,06,04,17,19,12.70
2012,06,04,17,20,12.70
2012,06,04,17,21,12.60
2012,06,04,17,22,12.60
2012,06,04,17,23,12.60
2012,06,04,17,24,12.60
2012,06,04,17,25,12.60
2012,06,04,17,26,12.70
2012,06,04,17,27,12.70
2012,06,04,17,28,12.70
2012,06,04,17,29,12.70
2012,06,04,17,30,12.70
2012,06,04,17,31,12.70
2012,06,04,17,32,12.70
2012,06,04,17,33,12.70
2012,06,04,17,34,12.70
2012,06,04,17,35,12.70
2012,06,04,17,36,12.70
2012,06,04,17,37,12.60
2012,06,04,17,38,12.60
2012,06,04,17,39,12.60
2012,06,04,17,40,12.60
2012,06,04,17,41,12.60
2012,06,04,17,42,12.60